Location: Cactus School
(34.5700°N, 118.0931°W)
Time: 03:18:17
(UTC-08:00)

Tiros 1 - Pass Details

Date: 23 November 2019
Orbit: 630 x 664 km, 48.4° (Epoch: 05 December)

Event Time Altitude Azimuth Distance (km) Brightness Sun altitude
Rises 18:53:30 0° 305° (NW) 2,925 11.2 -26.4°
Reaches altitude 10° 18:55:50 10° 302° (WNW) 2,018 10.3 -26.9°
Enters shadow 18:59:53 58° 259° (WSW) 740 7.6 -27.7°
Maximum altitude 19:00:25 64° 221° (SW) 705 - -27.8°
Drops below altitude 10° 19:05:03 10° 140° (SE) 2,028 - -28.8°
Sets 19:07:24 0° 138° (SE) 2,941 - -29.3°
